This is the latest recevied weather packets stored in our database for station/object KI4NG. If no packets are shown the sender has not sent any weather packets the latest 10 day(s).
| Time | Temp. | Humidity | Pressure | Rain* | Wind** | Luminosity | Snow |
|---|---|---|---|---|---|---|---|
| 1777819515 | 10° C | 54% | 1022.2 hPa | 0 mm | - | 687 W/m² | - |
| 1777819212 | 10.56° C | 55% | 1022.1 hPa | 0 mm | - | 681 W/m² | - |
| 1777818909 | 10.56° C | 56% | 1022.1 hPa | 0 mm | - | 695 W/m² | - |
| 1777818605 | 10.56° C | 58% | 1022 hPa | 0 mm | - | 688 W/m² | - |
| 1777818302 | 10.56° C | 54% | 1022.1 hPa | 0 mm | - | 652 W/m² | - |
| 1777817998 | 10.56° C | 57% | 1021.9 hPa | 0 mm | - | 622 W/m² | - |
| 1777817696 | 10° C | 58% | 1021.9 hPa | 0 mm | - | 557 W/m² | - |
| 1777817393 | 10.56° C | 57% | 1021.9 hPa | 0 mm | - | 580 W/m² | - |
| 1777817089 | 10° C | 57% | 1021.9 hPa | 0 mm | - | 560 W/m² | - |
| 1777816785 | 10.56° C | 58% | 1022.2 hPa | 0 mm | - | 441 W/m² | - |
| 1777816484 | 10° C | 66% | 1022.1 hPa | 0 mm | - | 93 W/m² | - |
| 1777816181 | 10° C | 70% | 1022 hPa | 0 mm | - | 489 W/m² | - |
| 1777815878 | 9.44° C | 69% | 1022.1 hPa | 0 mm | - | 90 W/m² | - |
| 1777815575 | 8.89° C | 72% | 1022.1 hPa | 0 mm | - | 355 W/m² | - |
| 1777815273 | 8.89° C | 72% | 1022.1 hPa | 0 mm | - | 407 W/m² | - |
| 1777814968 | 8.33° C | 80% | 1021.9 hPa | 0 mm | - | 81 W/m² | - |
| 1777814666 | 8.33° C | 77% | 1022 hPa | 0 mm | - | 473 W/m² | - |
| 1777814362 | 7.78° C | 80% | 1022.1 hPa | 0 mm | - | 64 W/m² | - |
| 1777814060 | 7.78° C | 81% | 1022.1 hPa | 0 mm | - | 574 W/m² | - |
| 1777813756 | 6.67° C | 83% | 1022 hPa | 0 mm | - | 735 W/m² | - |
| 1777813454 | 6.67° C | 83% | 1022.2 hPa | 0 mm | - | 1173 W/m² | - |
| 1777813151 | 6.67° C | 85% | 1021.9 hPa | 0 mm | - | 121 W/m² | - |
| 1777812849 | 6.11° C | 88% | 1022 hPa | 0 mm | - | 183 W/m² | - |
| 1777812545 | 5.56° C | 91% | 1022 hPa | 0 mm | - | 115 W/m² | - |
| 1777812243 | 5° C | 93% | 1022.1 hPa | 0 mm | - | 95 W/m² | - |
* Rain latest hour (hover to see other rain measurements)
** Current wind speed in m/s (hover to see current wind gust speed)